Location: Andrest
(43.3200°N, 0.0641°E)
Time: 05:11:52
(UTC+00:00)

SL-8 Rocket - Pass Details

Date: 22 April 2021
Orbit: 958 x 989 km, 82.9° (Epoch: 11 May)

Event Time Altitude Azimuth Distance (km) Brightness Sun altitude
Rises 23:25:21 0° 5° (N) 3,697 8.0 -33.6°
Reaches altitude 10° 23:28:47 10° 24° (NNE) 2,749 7.0 -33.7°
Maximum altitude 23:33:00 18° 66° (ENE) 2,202 6.0 -33.9°
Enters shadow 23:33:40 18° 74° (ENE) 2,218 5.9 -33.9°
